Date String (YYYY-MM-DD hh:mm:ss) UTC,Instrument flags,Ambient pressure (hPa),Sample flow (lpm),Bypass flow (lpm),Sample temperature (°C),Ambient temperature (°C),ASC tube jacket temperature (°C),LED temperature (°C),Box temperature (°C),Sample RH (%),Span deviation,Mass concentration (μg/m³),Mass concentration (μg/m³),Mass concentration (μg/m³)
DateTimeUTC,F1_M11,P_M11,Q1_M11,Q2_M11,T1_M11,T2_M11,T3_M11,T4_M11,T5_M11,U1_M11,ZSPAN_M11,X2_M11,X0_M11,X1_M11
2022-07-10 13:00:00,,0830.7,5.01,0.00,29.8,27.5,00.0,38.5,31.6,15.0,0000.0,0003.35,0008.79,0002.70
2022-07-10 13:01:00,,0830.8,5.00,0.00,29.7,27.6,00.0,38.5,31.5,15.1,0000.0,0003.38,0008.63,0002.71
2022-07-10 13:02:00,,0830.7,5.00,0.00,29.7,27.7,00.0,38.5,31.4,15.2,0000.0,0003.39,0008.57,0002.72
2022-07-10 13:03:00,,0830.8,5.00,0.00,29.7,27.9,00.0,38.5,31.5,15.0,0000.0,0003.35,0008.38,0002.72
2022-07-10 13:04:00,,0830.8,5.01,0.00,29.7,28.0,00.0,38.5,31.5,15.2,0000.0,0003.35,0008.32,0002.72
2022-07-10 13:05:00,,0830.8,5.00,0.00,29.7,28.2,00.0,38.5,31.5,15.3,0000.0,0003.34,0008.22,0002.73
2022-07-10 13:06:00,,0830.8,5.00,0.00,29.7,28.3,00.0,38.5,31.6,15.0,0000.0,0003.35,0008.14,0002.74
2022-07-10 13:07:00,,0830.8,5.00,0.00,29.7,28.4,00.0,38.5,31.6,15.0,0000.0,0003.38,0008.02,0002.75
2022-07-10 13:08:00,,0830.8,4.99,0.00,29.8,28.5,00.0,38.5,31.7,15.3,0000.0,0003.39,0007.68,0002.76
2022-07-10 13:09:00,,0830.8,4.99,0.00,29.8,28.6,00.0,38.5,31.7,15.2,0000.0,0003.42,0007.58,0002.78
2022-07-10 13:10:00,,0830.8,5.00,0.00,29.8,28.7,00.0,38.5,31.7,15.2,0000.0,0003.40,0006.69,0002.79
2022-07-10 13:11:00,,0830.8,5.01,0.00,29.8,28.8,00.0,38.6,31.7,15.1,0000.0,0003.38,0006.75,0002.80
2022-07-10 13:12:00,,0830.7,5.00,0.00,29.9,28.8,00.0,38.6,31.8,15.0,0000.0,0003.35,0007.36,0002.80
2022-07-10 13:13:00,,0830.8,4.99,0.00,29.9,28.7,00.0,38.6,31.8,15.1,0000.0,0003.34,0007.26,0002.80
2022-07-10 13:14:00,,0830.8,5.01,0.00,29.9,27.9,00.0,38.5,31.7,15.3,0000.0,0003.33,0007.21,0002.79
2022-07-10 13:15:00,,0830.8,5.00,0.00,29.8,27.5,00.0,38.5,31.6,15.3,0000.0,0003.32,0007.18,0002.78
2022-07-10 13:16:00,,0830.8,5.00,0.00,29.8,27.5,00.0,38.5,31.5,15.4,0000.0,0003.30,0007.11,0002.77
2022-07-10 13:17:00,,0830.8,5.00,0.00,29.7,27.6,00.0,38.5,31.5,15.6,0000.0,0003.31,0007.11,0002.74
2022-07-10 13:18:00,,0830.8,5.01,0.00,29.7,27.7,00.0,38.5,31.5,15.7,0000.0,0003.29,0006.49,0002.74
2022-07-10 13:19:00,,0830.7,5.00,0.00,29.7,27.9,00.0,38.5,31.5,15.3,0000.0,0003.28,0006.56,0002.72
2022-07-10 13:20:00,,0830.8,5.00,0.00,29.7,28.0,00.0,38.5,31.5,15.2,0000.0,0003.24,0007.10,0002.70
2022-07-10 13:21:00,,0830.7,5.00,0.00,29.7,28.2,00.0,38.5,31.6,15.2,0000.0,0003.23,0007.26,0002.70
2022-07-10 13:22:00,,0830.8,5.00,0.00,29.7,28.3,00.0,38.5,31.6,15.2,0000.0,0003.25,0007.20,0002.70
2022-07-10 13:23:00,,0830.8,5.00,0.00,29.8,28.4,00.0,38.5,31.6,15.3,0000.0,0003.26,0007.07,0002.70
2022-07-10 13:24:00,,0830.8,5.00,0.00,29.8,28.5,00.0,38.5,31.7,15.5,0000.0,0003.26,0007.04,0002.70
2022-07-10 13:25:00,,0830.8,4.99,0.00,29.8,28.6,00.0,38.5,31.7,15.6,0000.0,0003.29,0007.28,0002.71
2022-07-10 13:26:00,,0830.7,5.01,0.00,29.8,28.7,00.0,38.6,31.8,15.6,0000.0,0003.34,0007.44,0002.72
2022-07-10 13:27:00,,0830.8,4.99,0.00,29.9,28.8,00.0,38.6,31.8,15.6,0000.0,0003.38,0007.60,0002.72
2022-07-10 13:28:00,,0830.7,5.01,0.00,29.9,28.2,00.0,38.5,31.7,15.7,0000.0,0003.39,0007.68,0002.73
2022-07-10 13:29:00,,0830.8,5.01,0.00,29.8,27.6,00.0,38.5,31.6,15.8,0000.0,0003.38,0007.71,0002.73
2022-07-10 13:30:00,,0830.8,4.99,0.00,29.8,27.5,00.0,38.5,31.5,15.9,0000.0,0003.39,0008.10,0002.73
2022-07-10 13:31:00,,0830.7,4.99,0.00,29.7,27.6,00.0,38.5,31.5,15.6,0000.0,0003.41,0007.65,0002.74
2022-07-10 13:32:00,,0830.7,5.01,0.00,29.7,27.7,00.0,38.5,31.4,15.9,0000.0,0003.41,0007.44,0002.74
2022-07-10 13:33:00,,0830.8,5.00,0.00,29.7,27.8,00.0,38.5,31.4,15.6,0000.0,0003.42,0007.44,0002.74
2022-07-10 13:34:00,,0830.7,4.98,0.00,29.7,28.0,00.0,38.5,31.5,16.0,0000.0,0003.43,0007.15,0002.74
2022-07-10 13:35:00,,0830.7,5.00,0.00,29.7,28.1,00.0,38.5,31.5,15.8,0000.0,0003.42,0006.64,0002.74
2022-07-10 13:36:00,,0830.8,5.01,0.00,29.7,28.3,00.0,38.5,31.5,15.6,0000.0,0003.44,0006.72,0002.73
2022-07-10 13:37:00,,0830.8,5.00,0.00,29.7,28.4,00.0,38.5,31.6,15.1,0000.0,0003.42,0007.63,0002.72
2022-07-10 13:38:00,,0830.8,5.00,0.00,29.8,28.5,00.0,38.5,31.6,15.6,0000.0,0003.37,0007.61,0002.71
2022-07-10 13:39:00,,0830.8,5.00,0.00,29.8,28.6,00.0,38.5,31.7,15.6,0000.0,0003.35,0007.77,0002.72
2022-07-10 13:40:00,,0830.9,5.01,0.00,29.8,28.7,00.0,38.5,31.7,15.5,0000.0,0003.36,0007.92,0002.72
2022-07-10 13:41:00,,0830.8,4.99,0.00,29.8,28.8,00.0,38.6,31.8,16.0,0000.0,0003.34,0007.55,0002.72
2022-07-10 13:42:00,,0830.8,5.00,0.00,29.9,28.5,00.0,38.5,31.8,16.1,0000.0,0003.36,0007.63,0002.72
2022-07-10 13:43:00,,0830.9,5.01,0.00,29.8,27.8,00.0,38.5,31.7,16.0,0000.0,0003.37,0007.63,0002.73
2022-07-10 13:44:00,,0831.0,5.02,0.00,29.8,27.5,00.0,38.5,31.6,16.2,0000.0,0003.39,0007.70,0002.72
2022-07-10 13:45:00,,0830.9,5.01,0.00,29.8,27.5,00.0,38.5,31.5,17.2,0000.0,0003.37,0007.63,0002.73
2022-07-10 13:46:00,,0830.9,5.00,0.00,29.7,27.6,00.0,38.5,31.5,17.0,0000.0,0003.37,0007.65,0002.73
2022-07-10 13:47:00,,0830.9,4.99,0.00,29.7,27.8,00.0,38.5,31.4,18.8,0000.0,0003.35,0007.97,0002.72
2022-07-10 13:48:00,,0830.9,5.00,0.00,29.7,27.9,00.0,38.5,31.5,18.3,0000.0,0003.35,0007.31,0002.73
2022-07-10 13:49:00,,0830.9,5.01,0.00,29.7,28.1,00.0,38.5,31.5,18.3,0000.0,0003.37,0007.25,0002.74
2022-07-10 13:50:00,,0830.9,5.01,0.00,29.7,28.2,00.0,38.5,31.6,18.5,0000.0,0003.38,0007.78,0002.74
2022-07-10 13:51:00,,0830.9,4.99,0.00,29.7,28.4,00.0,38.5,31.6,18.0,0000.0,0003.37,0008.74,0002.75
2022-07-10 13:52:00,,0830.9,5.00,0.00,29.8,28.5,00.0,38.5,31.7,18.3,0000.0,0003.38,0008.99,0002.76
2022-07-10 13:53:00,,0830.9,5.00,0.00,29.8,28.6,00.0,38.5,31.7,17.9,0000.0,0003.36,0008.95,0002.76
2022-07-10 13:54:00,,0831.0,5.01,0.00,29.8,28.7,00.0,38.5,31.8,17.7,0000.0,0003.34,0008.94,0002.76
2022-07-10 13:55:00,,0831.0,5.00,0.00,29.9,28.7,00.0,38.5,31.8,18.2,0000.0,0003.32,0009.29,0002.78
2022-07-10 13:56:00,,0830.9,5.00,0.00,29.9,28.1,00.0,38.5,31.7,17.9,0000.0,0003.33,0009.60,0002.78
2022-07-10 13:57:00,,0830.9,5.00,0.00,29.8,27.6,00.0,38.5,31.6,17.2,0000.0,0003.32,0009.58,0002.78
2022-07-10 13:58:00,,0830.9,5.00,0.00,29.8,27.6,00.0,38.5,31.6,18.3,0000.0,0003.31,0009.53,0002.80
2022-07-10 13:59:00,,0830.9,5.01,0.00,29.7,27.7,00.0,38.5,31.5,18.1,0000.0,0003.29,0010.12,0002.80
